sat.trackr.live / text

‹ back to catalog

GPS BIII-6 (PRN 28)

NORAD 55268 · 2023-009A

PAYLOAD ACTIVE UNKNOWN

§ Identity

Operator
Country
US
Launch date
2023-01-18
Launch site
AFETR
Launch vehicle
Mass (kg)
RCS (m²)

Purposes: nav

External: N2YO · Heavens-Above · Gunter

§ Orbital elements

Epoch: 2026-05-22T12:49:59.246400Z

Period
717.94 min
Inclination
55.1207°
Eccentricity
0.0008482
Mean motion
2.00573116 rev/d
Perigee alt
20,158.8 km
Apogee alt
20,203.9 km
Semi-major
26,559.5 km
B*
0.0000e+0
RAAN
149.5238°
Arg perigee
318.2622°
Mean anomaly
45.1799°
Rev number
2,473

§ Raw data

GPS BIII-6  (PRN 28)1 55268U 23009A   26142.53471350  .00000069  00000+0  00000+0 0  99962 55268  55.1207 149.5238 0008482 318.2622  45.1799  2.00573116 24732

JSON: /api/v1/satellites/55268 · /tle

For live sub-satellite position, see the globe view (requires WebGL).

§ Visibility from observer

Set your observer location to see the next 7 days of passes ≥ 10°. The values pass through the URL so the page stays shareable.

No JS? Fill the form by hand. The geolocation button needs JavaScript.